x

Mount Batten (03827) Weather Station

1:00am - Tue 9th Feb 2016 All times are GMT.

  • Wind
    22mph, 33mph gusts
  • 空気 Temp 45°f
  • Sea Pressure 996mb
  • Mount Batten
  • Mount Batten

More Historic Weather Station data

Upgrade to MSW Pro to gain access to the past 30 days of data for over 8000 Wavebouys and Weather Stations around the globe.

Join Pro

Comparision Forecast

View Surf forecast
   
Tue 02/09 1:00am 22 33 mph 996mb 45f
Mon 02/08 11:00pm 28 39 mph 998mb 44f
10:00pm 25 40 mph 998mb 44f
8:00pm 24 44 mph 998mb 44f
7:00pm 25 45 mph 998mb 45f
6:00pm 32 48 mph 998mb 46f
4:00pm 38 59 mph 996mb 46f
3:00pm 37 61 mph 995mb 49f
2:00pm 41 60 mph 994mb 49f
1:00pm 41 61 mph 993mb 49f
12:00pm 37 60 mph 992mb 48f
11:00am 43 66 mph 991mb 48f
10:00am 37 61 mph 990mb 48f
9:00am 39 61 mph 989mb 47f
8:00am 40 61 mph 988mb 46f
7:00am 40 66 mph 988mb 45f
6:00am 39 59 mph 988mb 45f
5:00am 38 54 mph 988mb 45f
4:00am 31 66 mph 988mb 43f
3:00am 33 56 mph 987mb 44f
2:00am 32 57 mph 988mb 44f
1:00am 31 52 mph 988mb 45f
12:00am 31 59 mph 988mb 47f
Sun 02/07 11:00pm 37 49 mph 988mb 50f
10:00pm 30 59 mph 988mb 48f
9:00pm 28 46 mph 988mb 50f
8:00pm 26 53 mph 988mb 50f
7:00pm 41 59 mph 990mb 51f
6:00pm 40 54 mph 991mb 50f
5:00pm 39 49 mph 992mb 48f
4:00pm 33 46 mph 995mb 46f
3:00pm 30 45 mph 996mb 46f
2:00pm 24 44 mph 997mb 44f
1:00pm 18 40 mph 997mb 47f
12:00pm 26 34 mph 997mb 46f
11:00am 29 37 mph 998mb 45f
10:00am 19 36 mph 997mb 44f
9:00am 17 31 mph 996mb 43f
8:00am 18 38 mph 995mb 44f
7:00am 26 46 mph 994mb 43f
6:00am 25 37 mph 993mb 44f
5:00am 29 41 mph 992mb 44f
4:00am 23 34 mph 992mb 43f
3:00am 23 48 mph 992mb 40f
2:00am 21 31 mph 991mb 42f
1:00am 17 37 mph 991mb 44f
Sat 02/06 11:00pm 22 31 mph 989mb 44f
10:00pm 17 38 mph 989mb 44f
9:00pm 22 29 mph 988mb 45f
8:00pm 16 30 mph 987mb 44f
6:00pm 22 37 mph 986mb 46f
5:00pm 26 47 mph 986mb 48f
4:00pm 36 76 mph 986mb 49f
2:00pm 45 62 mph 988mb 51f
1:00pm 43 61 mph 990mb 51f
12:00pm 41 61 mph 992mb 51f
11:00am 46 60 mph 993mb 51f
10:00am 43 59 mph 994mb 51f
9:00am 43 56 mph 995mb 51f
7:00am 38 48 mph 998mb 51f
6:00am 36 44 mph 999mb 51f
5:00am 26 43 mph 1001mb 51f
4:00am 33 45 mph 1002mb 51f
3:00am 16
mph
1004mb 49f
2:00am 5
mph
1005mb 46f
1:00am 9 41 mph 1007mb 48f
12:00am 30 43 mph 1007mb 50f
Fri 02/05 11:00pm 25 37 mph 1008mb 50f
10:00pm 25 38 mph 1009mb 50f
8:00pm 25 39 mph 1010mb 49f
7:00pm 29 44 mph 1011mb 50f
6:00pm 32 41 mph 1011mb 51f
5:00pm 29 43 mph 1012mb 50f
4:00pm 28 39 mph 1013mb 50f
3:00pm 28 43 mph 1014mb 50f
2:00pm 25 34 mph 1016mb 51f
1:00pm 26 37 mph 1017mb 50f
12:00pm 23 36 mph 1018mb 51f
11:00am 19 36 mph 1019mb 49f
10:00am 23 36 mph 1020mb 49f
9:00am 19 31 mph 1020mb 49f
8:00am 21 33 mph 1021mb 49f
7:00am 18 29 mph 1021mb 49f
6:00am 18 30 mph 1022mb 50f
5:00am 23 31 mph 1023mb 49f
4:00am 15
mph
1024mb 50f
3:00am 19
mph
1025mb 50f
2:00am 15
mph
1026mb 50f